Terug naar catalogus

STARLINK-36810

ActiefCommunicatieSSO
NORAD 67898·PAYLOAD·🇺🇸 United States

Gelanceerd Feb 21, 2026 vanaf Vandenberg Space Force Base

Loading…

Volgende Passages (komende 24 uur)

TLE

VersSource: CelesTrak SupGP

Epoch: Sep 15, 2026, 04:19 UTC

1 67898C 26035V   26258.18034722  .00110080  00000+0  34167-2 0  2584
2 67898  97.2849 190.1027 0001923  99.1587  44.3906 15.33387264    12

Volg STARLINK-36810 in realtime met AllMySat

Download on the App Store